0 HST 1 20580U 90037B 26071.94420327 .00008743 00000-0 28877-3 0 9998 2 20580 28.4723 17.7975 0001801 157.8636 202.2037 15.29540863773810 0 ISS (ZARYA) 1 25544U 98067A 26071.86901803 .00011348 00000-0 21655-3 0 9990 2 25544 51.6324 56.6367 0007924 186.1410 173.9482 15.48614629556825 0 CXO 1 25867U 99040B 26074.17591503 .00001098 00000-0 00000+0 0 9997 2 25867 54.6015 119.5309 7987924 310.6410 0.3950 0.37797975 16963